AB5KT-1 Weather Reports


time (UTC)temp
C
wind
direction
speed
KPH
gust
KPH
rain 1hr
cm
rain 24hr
cm
rain mn
cm
humidity
%
barometer
mb
20260506180052 27 68 3.2 9.7 0.00 0.03 0.03 77 1011.1
20260506180048 27 82 3.2 12.9 0.00 0.03 0.03 75 1011.2
20260506175652 27 76 1.6 8.0 0.00 0.03 0.03 76 1011.2
20260506174549 26 22 1.6 9.7 0.00 0.03 0.03 76 1011.2
20260506174545 26 355 1.6 9.7 0.00 0.03 0.03 77 1011.3
20260506173548 26 34 0.0 8.0 0.00 0.03 0.03 80 1011.3
20260506173544 26 45 1.6 8.0 0.00 0.03 0.03 78 1011.3
20260506172544 26 36 0.0 3.2 0.00 0.03 0.03 80 1011.3
20260506172044 26 36 0.0 0.0 0.00 0.03 0.03 80 1011.3
20260506171543 26 36 0.0 0.0 0.00 0.03 0.03 80 1011.3
20260506171042 25 36 0.0 0.0 0.00 0.03 0.03 81 1011.3
20260506170541 25 36 0.0 6.4 0.00 0.03 0.03 83 1011.3
20260506170040 25 36 1.6 6.4 0.00 0.03 0.03 82 1011.3
20260506165540 25 36 1.6 6.4 0.00 0.03 0.03 83 1011.4
20260506165043 25 37 1.6 6.4 0.00 0.03 0.03 84 1011.4
20260506165038 25 37 0.0 3.2 0.03 0.03 0.03 84 1011.4
20260506164037 25 36 0.0 3.2 0.03 0.03 0.03 85 1011.3
20260506163538 24 36 1.6 3.2 0.03 0.03 0.03 86 1011.3
20260506163036 24 36 1.6 6.4 0.03 0.03 0.03 86 1011.3
20260506162534 24 26 1.6 6.4 0.03 0.03 0.03 86 1011.3
20260506162034 23 54 1.6 6.4 0.03 0.03 0.03 87 1011.3
20260506161533 23 46 3.2 6.4 0.03 0.03 0.03 88 1011.3
20260506161034 23 64 3.2 6.4 0.03 0.03 0.03 88 1011.2
20260506160538 23 85 1.6 9.7 0.03 0.03 0.03 87 1011.0
20260506160534 23 51 3.2 9.7 0.03 0.03 0.03 88 1011.1
20260506155538 23 58 3.2 6.4 0.03 0.03 0.03 86 1011.1
20260506155534 23 59 1.6 6.4 0.03 0.03 0.03 87 1011.1
20260506154534 24 42 3.2 9.7 0.00 0.00 0.00 85 1011.0
20260506154031 24 69 1.6 9.7 0.00 0.00 0.00 84 1011.0
20260506153532 24 44 1.6 8.0 0.00 0.00 0.00 83 1010.9
20260506153032 25 50 1.6 6.4 0.00 0.00 0.00 83 1010.8
20260506152531 25 56 1.6 6.4 0.00 0.00 0.00 83 1010.8
20260506152032 25 54 1.6 3.2 0.00 0.00 0.00 83 1010.6
20260506151532 25 54 1.6 9.7 0.00 0.00 0.00 83 1010.6
20260506151032 25 65 1.6 9.7 0.00 0.00 0.00 82 1010.5
20260506150530 25 48 1.6 6.4 0.00 0.00 0.00 82 1010.5
20260506150028 25 27 1.6 6.4 0.00 0.00 0.00 83 1010.4
20260506145528 25 27 1.6 6.4 0.00 0.00 0.00 83 1010.4
20260506145029 24 119 1.6 3.2 0.00 0.00 0.00 83 1010.4
20260506144528 24 119 1.6 3.2 0.00 0.00 0.00 83 1010.4
20260506144027 24 126 0.0 1.6 0.00 0.00 0.00 83 1010.3
20260506143528 24 126 0.0 6.4 0.00 0.00 0.00 83 1010.3
20260506143028 24 126 0.0 6.4 0.00 0.00 0.00 84 1010.2
20260506142528 24 131 1.6 8.0 0.00 0.00 0.00 84 1010.1
20260506142032 24 121 1.6 8.0 0.00 0.00 0.00 84 1009.9
20260506142028 24 110 1.6 8.0 0.00 0.00 0.00 84 1009.9
20260506141028 24 261 0.0 1.6 0.00 0.00 0.00 85 1010.0
20260506140526 24 261 1.6 6.4 0.00 0.00 0.00 85 1009.9
20260506140026 24 126 1.6 6.4 0.00 0.00 0.00 85 1009.7
20260506135526 24 131 0.0 6.4 0.00 0.00 0.00 85 1009.6
20260506135025 23 132 0.0 6.4 0.00 0.00 0.00 86 1009.5
20260506134526 23 142 1.6 8.0 0.00 0.00 0.00 86 1009.4
20260506134025 23 114 1.6 8.0 0.00 0.00 0.00 86 1009.2
20260506133526 23 119 1.6 8.0 0.00 0.00 0.00 86 1009.2
20260506133026 23 121 1.6 8.0 0.00 0.00 0.00 86 1009.1
20260506132524 23 116 1.6 8.0 0.00 0.00 0.00 86 1009.1
20260506132028 23 108 1.6 6.4 0.00 0.00 0.00 86 1009.1
20260506132024 23 113 1.6 6.4 0.00 0.00 0.00 86 1009.2
20260506131024 23 105 1.6 11.3 0.00 0.00 0.00 87 1009.0
20260506130524 23 158 3.2 11.3 0.00 0.00 0.00 87 1008.9
20260506130024 23 127 3.2 11.3 0.00 0.00 0.00 87 1008.8
20260506125524 23 134 3.2 11.3 0.00 0.00 0.00 87 1008.8
20260506125024 23 111 3.2 9.7 0.00 0.00 0.00 87 1008.8
20260506124524 23 117 1.6 8.0 0.00 0.00 0.00 88 1008.9
20260506124024 23 127 1.6 9.7 0.00 0.00 0.00 88 1008.8
20260506123528 23 118 1.6 8.0 0.00 0.00 0.00 88 1008.9
20260506123524 23 120 1.6 9.7 0.00 0.00 0.00 88 1008.8
20260506122523 23 119 1.6 6.4 0.00 0.00 0.00 88 1008.8
20260506122023 23 134 1.6 6.4 0.00 0.00 0.00 88 1008.8
20260506121521 23 157 0.0 3.2 0.00 0.00 0.00 88 1008.9
20260506121019 23 118 1.6 8.0 0.00 0.00 0.00 88 1008.9
20260506120519 23 123 1.6 8.0 0.00 0.00 0.00 88 1008.9
20260506120019 23 125 1.6 8.0 0.00 0.00 0.00 88 1008.8
20260506115520 23 131 1.6 8.0 0.00 0.00 0.00 88 1008.8
20260506115017 23 118 1.6 8.0 0.00 0.00 0.00 88 1008.8
20260506114517 23 130 0.0 8.0 0.00 0.00 0.00 88 1008.8
20260506114018 23 108 0.0 3.2 0.00 0.00 0.00 88 1008.8
20260506113515 23 108 0.0 3.2 0.00 0.00 0.00 88 1008.8
20260506113017 23 108 0.0 3.2 0.00 0.00 0.00 87 1008.8
20260506112516 23 108 0.0 1.6 0.00 0.00 0.00 87 1008.8
20260506112015 23 108 0.0 1.6 0.00 0.00 0.00 87 1008.8
20260506111513 23 108 0.0 6.4 0.00 0.00 0.00 87 1008.8
20260506111012 23 108 0.0 6.4 0.00 0.00 0.00 87 1008.8
20260506110511 23 122 0.0 3.2 0.00 0.00 0.00 87 1008.8
20260506110009 23 123 0.0 1.6 0.00 0.00 0.00 87 1008.8
20260506105507 23 123 0.0 1.6 0.00 0.00 0.00 87 1008.8
20260506105008 23 123 0.0 1.6 0.00 0.00 0.00 87 1008.8
20260506104508 23 123 0.0 8.0 0.00 0.00 0.00 87 1008.7
20260506104004 23 123 0.0 8.0 0.00 0.00 0.00 87 1008.6
20260506103503 23 133 1.6 8.0 0.00 0.00 0.00 87 1008.4
20260506103006 23 134 1.6 8.0 0.00 0.00 0.00 87 1008.4
20260506103002 23 134 0.0 8.0 0.00 0.00 0.00 87 1008.4
20260506102002 23 126 1.6 8.0 0.00 0.00 0.00 87 1008.6
20260506101459 23 125 1.6 6.4 0.00 0.00 0.00 87 1008.6
20260506101000 23 126 1.6 11.3 0.00 0.00 0.00 87 1008.4
20260506100459 23 154 1.6 11.3 0.00 0.00 0.00 87 1008.4
20260506100455 23 159 1.6 8.0 0.00 0.00 0.00 87 1008.4
20260506095454 23 170 1.6 8.0 0.00 0.00 0.00 87 1008.4
20260506094955 23 192 1.6 9.7 0.00 0.00 0.00 87 1008.4
20260506094951 23 190 1.6 9.7 0.00 0.00 0.00 87 1008.4
20260506093949 23 126 3.2 9.7 0.00 0.00 0.00 87 1008.4
20260506093452 23 163 3.2 9.7 0.00 0.00 0.00 87 1008.4
20260506093448 23 155 3.2 9.7 0.00 0.00 0.00 87 1008.4
20260506093051 23 123 1.6 9.7 0.00 0.00 0.00 87 1008.4
20260506091945 23 132 1.6 8.0 0.00 0.00 0.00 87 1008.4
20260506091444 23 155 1.6 8.0 0.00 0.00 0.00 87 1008.4
20260506090941 23 133 1.6 6.4 0.00 0.00 0.00 87 1008.4
20260506090441 23 113 1.6 6.4 0.00 0.00 0.00 87 1008.6
20260506085940 23 163 1.6 8.0 0.00 0.00 0.00 87 1008.6
20260506085439 23 115 1.6 8.0 0.00 0.00 0.00 87 1008.4
20260506084940 23 110 3.2 11.3 0.00 0.00 0.00 86 1008.6
20260506084443 23 131 3.2 9.7 0.00 0.00 0.00 86 1008.7
20260506084439 23 163 3.2 11.3 0.00 0.00 0.00 86 1008.6
20260506083436 23 127 3.2 12.9 0.00 0.00 0.00 86 1008.7
20260506082931 23 140 4.8 12.9 0.00 0.00 0.00 86 1008.7
20260506082436 23 126 3.2 12.9 0.00 0.00 0.00 85 1008.7
20260506082432 23 121 3.2 11.3 0.00 0.00 0.00 86 1008.6
20260506081427 23 22 3.2 12.9 0.00 0.00 0.00 85 1008.7
20260506080928 23 89 3.2 9.7 0.00 0.00 0.00 85 1008.7
20260506080427 23 200 1.6 8.0 0.00 0.00 0.00 85 1008.7
20260506073418 23 134 3.2 12.9 0.00 0.00 0.00 85 1008.8
20260506072917 23 109 3.2 12.9 0.00 0.00 0.00 85 1008.9
20260506072415 23 126 3.2 14.5 0.00 0.00 0.00 85 1008.9
20260506071918 24 125 4.8 12.9 0.00 0.00 0.00 85 1008.9
20260506071914 23 114 4.8 14.5 0.00 0.00 0.00 85 1008.9
20260506070914 24 133 4.8 11.3 0.00 0.00 0.00 85 1009.0
20260506070413 24 184 4.8 16.1 0.00 0.00 0.00 85 1009.1
20260506062413 24 123 3.2 11.3 0.00 0.00 0.00 85 1009.0
20260506061914 24 106 3.2 12.9 0.00 0.00 0.00 85 1008.9
20260506061414 24 90 4.8 12.9 0.00 0.00 0.00 85 1009.0
20260506060913 24 122 6.4 14.5 0.00 0.00 0.00 85 1008.9
20260506060414 24 138 4.8 14.5 0.00 0.00 0.00 85 1008.9
20260506051414 24 59 3.2 11.3 0.00 0.00 0.00 85 1008.8
20260506050917 24 122 3.2 11.3 0.00 0.00 0.00 84 1008.9
20260506050913 24 76 3.2 11.3 0.00 0.00 0.00 84 1008.9
20260506044914 24 107 4.8 12.9 0.00 0.00 0.00 83 1008.7
20260506044417 25 128 4.8 17.7 0.00 0.00 0.00 83 1008.7
20260506044413 25 136 4.8 12.9 0.00 0.00 0.00 83 1008.7
20260506043414 25 147 4.8 17.7 0.00 0.00 0.00 83 1008.7
20260506042911 25 148 4.8 11.3 0.00 0.00 0.00 83 1008.7
20260506042412 25 118 4.8 14.5 0.00 0.00 0.00 82 1008.7
20260506041910 25 123 4.8 14.5 0.00 0.00 0.00 82 1008.7
20260506041413 25 150 4.8 12.9 0.00 0.00 0.00 81 1008.3
20260506041409 25 114 6.4 17.7 0.00 0.00 0.00 82 1008.4
20260506041013 25 31 4.8 17.7 0.00 0.00 0.00 81 1008.3
20260506035906 25 136 6.4 17.7 0.00 0.00 0.00 81 1008.2
20260506035406 25 121 6.4 17.7 0.00 0.00 0.00 81 1008.2
20260506034905 25 147 6.4 16.1 0.00 0.00 0.00 80 1008.3
20260506034406 25 117 6.4 17.7 0.00 0.00 0.00 80 1008.2
20260506033904 26 108 4.8 17.7 0.00 0.00 0.00 80 1008.1
20260506033404 26 121 4.8 12.9 0.00 0.00 0.00 80 1008.0
20260506032906 26 134 6.4 16.1 0.00 0.00 0.00 79 1008.0
20260506032902 26 131 4.8 16.1 0.00 0.00 0.00 79 1007.9
20260506031901 26 123 3.2 16.1 0.00 0.00 0.00 79 1007.9
20260506031400 26 128 3.2 11.3 0.00 0.00 0.00 78 1007.9
20260506030900 26 112 3.2 11.3 0.00 0.00 0.00 78 1007.9
20260506030404 26 107 3.2 16.1 0.00 0.00 0.00 77 1007.8
20260506030400 26 119 3.2 11.3 0.00 0.00 0.00 78 1007.9
20260506030002 26 134 4.8 16.1 0.00 0.00 0.00 78 1007.8
20260506024858 27 134 1.6 9.7 0.00 0.00 0.00 77 1007.7
20260506024358 27 129 3.2 9.7 0.00 0.00 0.00 77 1007.5
20260506023857 27 118 4.8 11.3 0.00 0.00 0.00 76 1007.4
20260506023358 27 103 3.2 11.3 0.00 0.00 0.00 76 1007.4
20260506022858 27 127 3.2 9.7 0.00 0.00 0.00 75 1007.2
20260506022357 27 116 3.2 9.7 0.00 0.00 0.00 74 1007.2
20260506021858 28 123 3.2 11.3 0.00 0.00 0.00 74 1007.2
20260506021358 28 109 3.2 14.5 0.00 0.00 0.00 73 1007.1
20260506020901 28 103 3.2 12.9 0.00 0.00 0.00 71 1007.1
20260506020857 28 109 3.2 14.5 0.00 0.00 0.00 72 1007.1
20260506015901 28 110 4.8 14.5 0.00 0.00 0.00 70 1006.9
20260506015857 28 87 4.8 11.3 0.00 0.00 0.00 71 1007.1
20260506014855 28 112 3.2 14.5 0.00 0.00 0.00 70 1006.7
20260506014400 28 134 3.2 12.9 0.00 0.00 0.00 70 1006.6
20260506014356 28 84 3.2 12.9 0.00 0.00 0.00 70 1006.6
20260506013400 28 113 3.2 11.3 0.00 0.00 0.00 69 1006.3
20260506013356 28 119 1.6 11.3 0.00 0.00 0.00 69 1006.4
20260506012400 29 88 3.2 12.9 0.00 0.00 0.00 68 1006.2
20260506012356 28 88 1.6 8.0 0.00 0.00 0.00 69 1006.3
20260506011353 29 98 3.2 12.9 0.00 0.00 0.00 68 1006.2
20260506010852 29 102 3.2 9.7 0.00 0.00 0.00 67 1006.1
20260506010355 30 103 3.2 9.7 0.00 0.00 0.00 66 1006.0
20260506010351 29 117 3.2 9.7 0.00 0.00 0.00 66 1006.0
20260506005351 30 78 3.2 9.7 0.00 0.00 0.00 65 1006.0
20260506004852 30 78 3.2 9.7 0.00 0.00 0.00 65 1005.9
20260506004352 30 100 3.2 9.7 0.00 0.00 0.00 64 1005.8
20260506003852 30 84 3.2 9.7 0.00 0.00 0.00 63 1005.8
20260506003355 31 104 3.2 9.7 0.00 0.00 0.00 62 1005.9
20260506003351 31 129 1.6 8.0 0.00 0.00 0.00 61 1005.9
20260506002350 31 127 1.6 8.0 0.00 0.00 0.00 61 1005.9
20260506001853 31 130 1.6 6.4 0.00 0.00 0.00 61 1005.9
20260506001848 32 121 0.0 3.2 0.00 0.00 0.00 59 1005.9
20260506000847 32 123 0.0 6.4 0.00 0.00 0.00 58 1005.9
20260506000348 32 123 1.6 6.4 0.00 0.00 0.00 59 1005.9
20260505235848 32 126 1.6 6.4 0.00 0.00 0.00 59 1005.8
20260505235347 32 97 1.6 9.7 0.00 0.00 0.00 59 1005.8
20260505234846 32 56 3.2 9.7 0.00 0.00 0.00 59 1005.8
20260505234345 32 158 1.6 8.0 0.00 0.00 0.00 58 1005.8
20260505233850 32 150 1.6 9.7 0.00 0.00 0.00 58 1005.9
20260505233846 32 135 0.0 9.7 0.00 0.00 0.00 57 1005.8
20260505232846 32 132 1.6 8.0 0.00 0.00 0.00 58 1005.8
20260505232344 32 140 1.6 8.0 0.00 0.00 0.00 58 1005.8
20260505231843 32 148 1.6 6.4 0.00 0.00 0.00 59 1005.8
20260505231344 32 119 1.6 6.4 0.00 0.00 0.00 57 1005.9
20260505230848 32 156 1.6 6.4 0.00 0.00 0.00 56 1005.7
20260505230844 32 166 0.0 6.4 0.00 0.00 0.00 57 1005.8
20260505225842 33 188 1.6 9.7 0.00 0.00 0.00 56 1005.8
20260505225341 32 129 1.6 9.7 0.00 0.00 0.00 57 1005.7
20260505224842 32 136 1.6 8.0 0.00 0.00 0.00 58 1005.8
20260505224345 32 126 3.2 11.3 0.00 0.00 0.00 58 1005.7
20260505224341 32 142 3.2 11.3 0.00 0.00 0.00 58 1005.8
20260505223344 31 130 3.2 12.9 0.00 0.00 0.00 61 1005.8
20260505223340 32 108 4.8 12.9 0.00 0.00 0.00 59 1005.8
20260505222944 31 184 3.2 9.7 0.00 0.00 0.00 60 1005.8
20260505221840 31 138 4.8 11.3 0.00 0.00 0.00 60 1005.8
20260505221338 31 180 4.8 11.3 0.00 0.00 0.00 60 1005.8
20260505220838 31 153 3.2 9.7 0.00 0.00 0.00 60 1005.9
20260505220342 31 222 3.2 9.7 0.00 0.00 0.00 60 1006.1
20260505220338 31 133 1.6 8.0 0.00 0.00 0.00 61 1006.0
20260505215342 31 180 4.8 17.7 0.00 0.00 0.00 60 1006.1
20260505215338 31 107 4.8 17.7 0.00 0.00 0.00 59 1006.1
20260505214942 31 159 4.8 16.1 0.00 0.00 0.00 59 1006.3
20260505213836 31 65 4.8 11.3 0.00 0.00 0.00 60 1006.3
20260505213336 31 116 4.8 12.9 0.00 0.00 0.00 61 1006.3
20260505212834 31 127 3.2 12.9 0.00 0.00 0.00 62 1006.4
20260505212333 31 226 3.2 11.3 0.00 0.00 0.00 64 1006.5
20260505211834 31 141 3.2 14.5 0.00 0.00 0.00 62 1006.5
20260505211338 30 165 4.8 12.9 0.00 0.00 0.00 63 1006.7
20260505211334 30 129 4.8 14.5 0.00 0.00 0.00 64 1006.6
20260505210334 30 163 4.8 12.9 0.00 0.00 0.00 63 1006.7
20260505205834 30 176 4.8 12.9 0.00 0.00 0.00 64 1006.8
20260505205334 30 173 4.8 11.3 0.00 0.00 0.00 65 1007.0
20260505204834 30 137 6.4 14.5 0.00 0.00 0.00 65 1007.0
20260505204334 30 189 6.4 14.5 0.00 0.00 0.00 67 1007.1
20260505203832 30 168 4.8 14.5 0.00 0.00 0.00 64 1007.2
20260505203332 30 121 3.2 11.3 0.00 0.00 0.00 64 1007.2
20260505202832 30 127 4.8 12.9 0.00 0.00 0.00 64 1007.4
20260505202332 30 169 6.4 16.1 0.00 0.00 0.00 66 1007.4
20260505201836 30 111 8.0 19.3 0.00 0.00 0.00 65 1007.6
20260505201832 30 150 8.0 17.7 0.00 0.00 0.00 64 1007.6
20260505200831 30 155 8.0 19.3 0.00 0.00 0.00 66 1007.7
20260505200332 30 192 6.4 17.7 0.00 0.00 0.00 65 1007.7
20260505195832 30 157 6.4 17.7 0.00 0.00 0.00 64 1007.7
20260505195331 30 161 3.2 12.9 0.00 0.00 0.00 64 1007.8
20260505194830 30 154 3.2 12.9 0.00 0.00 0.00 65 1007.9
20260505194332 30 160 3.2 12.9 0.00 0.00 0.00 66 1007.9
20260505194328 29 116 4.8 14.5 0.00 0.00 0.00 68 1007.9
20260505193327 28 144 6.4 14.5 0.00 0.00 0.00 67 1008.0
20260505192828 28 180 6.4 12.9 0.00 0.00 0.00 69 1008.1
20260505192330 28 192 4.8 12.9 0.00 0.00 0.00 68 1008.2
20260505192326 28 123 6.4 11.3 0.00 0.00 0.00 68 1008.1
20260505191326 28 196 6.4 19.3 0.00 0.00 0.00 71 1008.2
20260505190830 27 186 4.8 14.5 0.00 0.00 0.00 71 1008.4
20260505190826 28 166 6.4 19.3 0.00 0.00 0.00 70 1008.3
20260505185824 28 223 4.8 14.5 0.00 0.00 0.00 71 1008.6
20260505185324 27 154 8.0 20.9 0.00 0.00 0.00 71 1008.6
20260505184824 27 150 8.0 20.9 0.00 0.00 0.00 71 1008.8
20260505184324 27 207 8.0 20.9 0.00 0.00 0.00 72 1008.7
20260505183824 27 216 6.4 20.9 0.00 0.00 0.00 72 1008.7
20260505183324 27 117 4.8 12.9 0.00 0.00 0.00 72 1008.8
20260505182824 27 209 6.4 12.9 0.00 0.00 0.00 71 1008.9
20260505182324 27 123 6.4 17.7 0.00 0.00 0.00 71 1009.1
20260505181824 27 227 6.4 17.7 0.00 0.00 0.00 72 1009.1
20260505181324 27 183 8.0 17.7 0.00 0.00 0.00 73 1009.1
20260505180825 27 217 8.0 16.1 0.00 0.00 0.00 73 1009.1